• Em Portugal
  • Lista de países
  • Para 7 dias
  • Temperatura da água
  • Mapas de satélite
  • Mapa do tempo
  • Widgets de tempo
  • user-avatar
    Iniciar Sessão

    Previsão horária em Maceió

    Hoje, 19 Agosto, Sábado

    Tempo Temperatura Precipitação Vento Pressão Humidade
    00:00 +23°C° 1,2 mm 5 m/s 761 mmHg 95%
    01:00 +25°C° 1,2 mm 5 m/s 761 mmHg 95%
    02:00 +23°C° 1,4 mm 5 m/s 761 mmHg 95%
    03:00 +23°C° 1,4 mm 5 m/s 760 mmHg 95%
    04:00 +23°C° 1,4 mm 5 m/s 760 mmHg 95%
    05:00 +23°C° 1,1 mm 5 m/s 760 mmHg 95%
    06:00 +23°C° 1,1 mm 5 m/s 761 mmHg 95%
    07:00 +23°C° 1,1 mm 5 m/s 761 mmHg 96%
    08:00 +25°C° 0,8 mm 5 m/s 761 mmHg 94%
    09:00 +25°C° 0,8 mm 5 m/s 761 mmHg 93%
    10:00 +26°C° 0,8 mm 5 m/s 762 mmHg 91%
    11:00 +26°C° 0,7 mm 4 m/s 761 mmHg 91%
    12:00 +26°C° 0,7 mm 4 m/s 761 mmHg 90%
    13:00 +26°C° 0,7 mm 4 m/s 761 mmHg 90%
    14:00 +26°C° 0,4 mm 4 m/s 761 mmHg 89%
    15:00 +26°C° 0,4 mm 4 m/s 760 mmHg 89%
    16:00 +27°C° 0,4 mm 4 m/s 760 mmHg 88%
    17:00 +26°C° 0,3 mm 4 m/s 760 mmHg 90%
    18:00 +25°C° 0,3 mm 4 m/s 760 mmHg 92%
    19:00 +23°C° 0,3 mm 4 m/s 760 mmHg 94%
    20:00 +23°C° 0,3 mm 4 m/s 761 mmHg 95%
    21:00 +24°C° 0,3 mm 3 m/s 761 mmHg 95%
    22:00 +24°C° 0,3 mm 3 m/s 761 mmHg 95%
    23:00 +24°C° 0,3 mm 3 m/s 761 mmHg 95%

    Amanhã, 20 Agosto, Domingo

    Tempo Temperatura Precipitação Vento Pressão Humidade
    00:00 +22°C° 0,3 mm 4 m/s 761 mmHg 95%
    01:00 +22°C° 0,3 mm 4 m/s 761 mmHg 95%
    02:00 +22°C° 0,2 mm 4 m/s 761 mmHg 95%
    03:00 +22°C° 0,2 mm 4 m/s 760 mmHg 95%
    04:00 +22°C° 0,2 mm 4 m/s 760 mmHg 96%
    05:00 +22°C° 0,1 mm 4 m/s 760 mmHg 96%
    06:00 +22°C° 0,1 mm 4 m/s 761 mmHg 96%
    07:00 +22°C° 0,1 mm 4 m/s 761 mmHg 96%
    08:00 +25°C° 0,1 mm 4 m/s 762 mmHg 91%
    09:00 +26°C° 0,1 mm 4 m/s 762 mmHg 87%
    10:00 +28°C° 0,1 mm 5 m/s 763 mmHg 83%
    11:00 +28°C° 0,1 mm 5 m/s 762 mmHg 81%
    12:00 +29°C° 0,1 mm 5 m/s 762 mmHg 78%
    13:00 +29°C° 0,1 mm 5 m/s 762 mmHg 76%
    14:00 +29°C° 0,1 mm 5 m/s 761 mmHg 77%
    15:00 +29°C° 0,1 mm 5 m/s 761 mmHg 77%
    16:00 +28°C° 0,1 mm 5 m/s 760 mmHg 77%
    17:00 +27°C° 0 mm 4 m/s 760 mmHg 82%
    18:00 +26°C° 0 mm 4 m/s 761 mmHg 87%
    19:00 +23°C° 0 mm 4 m/s 761 mmHg 92%
    20:00 +24°C° 0 mm 3 m/s 762 mmHg 92%
    21:00 +22°C° 0 mm 3 m/s 762 mmHg 93%
    22:00 +22°C° 0 mm 3 m/s 763 mmHg 94%
    23:00 +22°C° 0,1 mm 3 m/s 762 mmHg 95%

    Depois de amanhã, 21 Agosto, Segunda-feira

    Tempo Temperatura Precipitação Vento Pressão Humidade
    00:00 +22°C° 0,1 mm 3 m/s 762 mmHg 95%
    01:00 +22°C° 0,1 mm 3 m/s 762 mmHg 95%
    02:00 +22°C° 0,1 mm 3 m/s 762 mmHg 96%
    03:00 +22°C° 0,1 mm 3 m/s 761 mmHg 96%
    04:00 +22°C° 0,1 mm 3 m/s 761 mmHg 96%
    05:00 +22°C° 0,1 mm 3 m/s 761 mmHg 96%
    06:00 +22°C° 0,1 mm 3 m/s 762 mmHg 96%
    07:00 +22°C° 0,1 mm 3 m/s 762 mmHg 96%
    08:00 +25°C° 0,1 mm 3 m/s 762 mmHg 91%
    09:00 +26°C° 0,1 mm 3 m/s 763 mmHg 86%
    10:00 +28°C° 0,1 mm 4 m/s 763 mmHg 80%
    11:00 +29°C° 0,1 mm 4 m/s 763 mmHg 77%
    12:00 +29°C° 0,1 mm 4 m/s 763 mmHg 74%
    13:00 +30°C° 0,1 mm 4 m/s 762 mmHg 71%
    14:00 +30°C° 0 mm 4 m/s 762 mmHg 72%
    15:00 +29°C° 0 mm 4 m/s 761 mmHg 73%
    16:00 +29°C° 0 mm 4 m/s 761 mmHg 74%
    17:00 +27°C° 0 mm 4 m/s 761 mmHg 80%
    18:00 +26°C° 0 mm 4 m/s 761 mmHg 87%
    19:00 +23°C° 0 mm 4 m/s 762 mmHg 93%
    20:00 +23°C° 0 mm 4 m/s 762 mmHg 94%
    21:00 +24°C° 0 mm 3 m/s 763 mmHg 94%
    22:00 +22°C° 0 mm 3 m/s 763 mmHg 95%
    23:00 +22°C° 0,1 mm 3 m/s 763 mmHg 95%

    22 Agosto, Terça-feira

    Tempo Temperatura Precipitação Vento Pressão Humidade
    00:00 +22°C° 0,1 mm 3 m/s 763 mmHg 95%
    01:00 +22°C° 0,1 mm 3 m/s 762 mmHg 95%
    02:00 +22°C° 0,1 mm 3 m/s 762 mmHg 96%
    03:00 +22°C° 0,1 mm 3 m/s 762 mmHg 96%
    04:00 +23°C° 0,1 mm 2 m/s 761 mmHg 96%
    05:00 +22°C° 0,1 mm 3 m/s 761 mmHg 96%
    06:00 +22°C° 0,1 mm 3 m/s 762 mmHg 96%
    07:00 +22°C° 0,1 mm 3 m/s 762 mmHg 96%
    08:00 +23°C° 0,5 mm 4 m/s 762 mmHg 94%
    09:00 +25°C° 0,5 mm 4 m/s 763 mmHg 91%
    10:00 +26°C° 0,5 mm 5 m/s 763 mmHg 88%
    11:00 +26°C° 0,5 mm 5 m/s 763 mmHg 88%
    12:00 +26°C° 0,5 mm 5 m/s 762 mmHg 89%
    13:00 +26°C° 0,5 mm 5 m/s 762 mmHg 90%
    14:00 +26°C° 0,4 mm 5 m/s 761 mmHg 90%
    15:00 +25°C° 0,4 mm 5 m/s 761 mmHg 91%
    16:00 +25°C° 0,4 mm 5 m/s 761 mmHg 92%
    17:00 +25°C° 0,2 mm 5 m/s 761 mmHg 93%
    18:00 +23°C° 0,2 mm 5 m/s 761 mmHg 94%
    19:00 +23°C° 0,2 mm 5 m/s 761 mmHg 94%
    20:00 +23°C° 0,2 mm 5 m/s 762 mmHg 95%
    21:00 +22°C° 0,2 mm 5 m/s 762 mmHg 96%
    22:00 +22°C° 0,2 mm 5 m/s 762 mmHg 96%
    23:00 +22°C° 0,2 mm 5 m/s 762 mmHg 96%

    23 Agosto, Quarta-feira

    Tempo Temperatura Precipitação Vento Pressão Humidade
    00:00 +22°C° 0,2 mm 5 m/s 762 mmHg 96%
    01:00 +22°C° 0,2 mm 4 m/s 761 mmHg 96%
    02:00 +22°C° 0,2 mm 4 m/s 761 mmHg 96%
    03:00 +22°C° 0,2 mm 4 m/s 761 mmHg 96%
    04:00 +22°C° 0,2 mm 4 m/s 760 mmHg 96%
    05:00 +22°C° 0,4 mm 4 m/s 761 mmHg 96%
    06:00 +22°C° 0,4 mm 4 m/s 761 mmHg 96%
    07:00 +22°C° 0,4 mm 4 m/s 761 mmHg 96%
    08:00 +23°C° 1 mm 4 m/s 762 mmHg 94%
    09:00 +25°C° 1 mm 5 m/s 762 mmHg 92%
    10:00 +26°C° 1 mm 5 m/s 762 mmHg 89%
    11:00 +26°C° 0,5 mm 5 m/s 762 mmHg 89%
    12:00 +26°C° 0,5 mm 5 m/s 762 mmHg 88%
    13:00 +27°C° 0,5 mm 5 m/s 761 mmHg 87%
    14:00 +27°C° 0,3 mm 5 m/s 761 mmHg 87%
    15:00 +26°C° 0,3 mm 5 m/s 761 mmHg 88%
    16:00 +26°C° 0,3 mm 5 m/s 760 mmHg 88%
    17:00 +26°C° 0,4 mm 5 m/s 761 mmHg 90%
    18:00 +25°C° 0,4 mm 5 m/s 761 mmHg 92%
    19:00 +23°C° 0,4 mm 5 m/s 761 mmHg 95%
    20:00 +23°C° 0,7 mm 5 m/s 762 mmHg 95%
    21:00 +23°C° 0,7 mm 5 m/s 762 mmHg 96%
    22:00 +22°C° 0,7 mm 4 m/s 762 mmHg 96%
    23:00 +22°C° 0,6 mm 4 m/s 762 mmHg 96%

    24 Agosto, Quinta-feira

    Tempo Temperatura Precipitação Vento Pressão Humidade
    00:00 +22°C° 0,6 mm 4 m/s 762 mmHg 96%
    01:00 +22°C° 0,6 mm 4 m/s 761 mmHg 96%
    02:00 +22°C° 0,6 mm 4 m/s 761 mmHg 96%
    03:00 +22°C° 0,6 mm 4 m/s 761 mmHg 96%
    04:00 +22°C° 0,6 mm 4 m/s 761 mmHg 96%
    05:00 +22°C° 0,5 mm 4 m/s 761 mmHg 96%
    06:00 +22°C° 0,5 mm 4 m/s 761 mmHg 96%
    07:00 +22°C° 0,5 mm 4 m/s 762 mmHg 96%
    08:00 +25°C° 0,3 mm 4 m/s 762 mmHg 92%
    09:00 +26°C° 0,3 mm 5 m/s 762 mmHg 88%
    10:00 +27°C° 0,3 mm 5 m/s 763 mmHg 84%
    11:00 +28°C° 0,2 mm 5 m/s 762 mmHg 83%
    12:00 +28°C° 0,2 mm 5 m/s 762 mmHg 82%
    13:00 +28°C° 0,2 mm 5 m/s 762 mmHg 81%
    14:00 +28°C° 0,1 mm 5 m/s 761 mmHg 81%
    15:00 +28°C° 0,1 mm 5 m/s 761 mmHg 81%
    16:00 +28°C° 0,1 mm 5 m/s 761 mmHg 81%
    17:00 +27°C° 0,1 mm 5 m/s 761 mmHg 85%
    18:00 +26°C° 0,1 mm 4 m/s 761 mmHg 89%
    19:00 +23°C° 0,1 mm 4 m/s 762 mmHg 93%
    20:00 +23°C° 0,1 mm 4 m/s 762 mmHg 94%
    21:00 +23°C° 0,1 mm 4 m/s 762 mmHg 95%
    22:00 +22°C° 0,1 mm 4 m/s 762 mmHg 96%
    23:00 +22°C° 0,5 mm 4 m/s 762 mmHg 96%
    Mostrar mais